Hourly Data Report for April 04, 2021

KENORA A
ONTARIO
Current Station Operator: NAVCAN

49°47'18.000" N
94°21'47.000" W
409.70 m
6034076
71850
YQK

Download Data

Hourly Data (April 2021)
Hourly Data Report for April 4, 2021
TIME
LST
Temp Definition
°C
Dew Point Definition
°C
Rel Hum Definition
%
Precip. Amount Definition
mm

Wind Dir Definition
10's deg

Wind Spd Definition
km/h
Visibility Definition
km
Stn Press Definition
kPa
Hmdx Definition


Wind Chill Definition


Weather Definition


00:00 6.8 -6.2 39   7 14 32.2 96.90     Mostly Cloudy
01:00 6.0 -6.5 40   6 16 32.2 96.87     LegendNANA
02:00 5.9 -6.8 40   6 17 32.2 96.81     LegendNANA
03:00 5.1 -6.9 41   5 16 32.2 96.75     Mostly Cloudy
04:00 5.1 -7.1 41   6 19 32.2 96.68     LegendNANA
05:00 4.8 -7.2 42   4 21 32.2 96.63     LegendNANA
06:00 4.5 -7.1 43   5 18 32.2 96.63     Mostly Cloudy
07:00 4.7 -6.7 43   4 20 32.2 96.66     LegendNANA
08:00 6.5 -6.8 38   4 22 32.2 96.68     LegendNANA
09:00 10.6 -7.0 28   7 26 32.2 96.68     Mostly Cloudy
10:00 12.4 -4.9 30   3 25 32.2 96.69     LegendNANA
11:00 14.0 -4.4 28   7 24 32.2 96.70     LegendNANA
12:00 14.5 -4.4 27   7 26 32.2 96.69     Mostly Cloudy
13:00 15.1 -5.0 24   7 21 32.2 96.68     LegendNANA
14:00 15.4 -4.3 25   7 21 32.2 96.66     LegendNANA
15:00 15.6 -4.5 25   5 17 32.2 96.64     Mostly Cloudy
16:00 15.6 -3.8 26   5 17 32.2 96.61     LegendNANA
17:00 14.8 -3.5 28   5 18 32.2 96.59     LegendNANA
18:00 13.2 -5.1 28   7 13 32.2 96.60     Cloudy
19:00 11.5 -4.7 32   6 11 32.2 96.57     LegendNANA
20:00 10.5 -4.7 34   5 13 32.2 96.59     LegendNANA
21:00 9.4 -4.6 37   6 11 32.2 96.56     Cloudy
22:00 8.0 -4.6 41   9 12 32.2 96.51     LegendNANA
23:00 6.5 -4.4 45   10 14 32.2 96.45     LegendNANA

Notes on Data Quality.

Legend

  • E = Estimated
  • M = Missing
  • NA = Not Available*
  • [empty] = Indicates an unobserved value
Date modified: